Regional Weather Roundup
Issued by NWS Sterling, VA

Home | Current Version | Previous Version | Graphics & Text | Print | Product List | Glossary On
Versions: 1 2 3 4 5 6 7 8 9 10 11 12 13 14 15 16 17 18 19 20 21 22 23 24 25 26 27 28 29 30 31 32 33 34 35 36 37 38 39 40 41 42 43 44 45 46 47 48 49 50
000
ASUS41 KLWX 191010
RWRLWX

REGIONAL WEATHER ROUNDUP
NATIONAL WEATHER SERVICE BALTIMORE MD/WASHINGTON DC
500 AM EST FRI DEC 19 2014

Note: "FAIR" indicates few or no clouds below 12,000 feet
with no significant weather and/or obstructions to visibility.
 TC=TEMPERATURE CELSIUS

 * =Non NWS site. Station does not report precipitation (e.g. rain,
    snow, etc.), thunder, or fog.

DCZ001-MDZ009-015-VAZ040>042-051-053>054-191100-
WASHINGTON METRO

CITY           SKY/WX    TMP DP  RH WIND       PRES   REMARKS
WASHINGTON NAT CLOUDY    37  21  52 W7        30.13S
DULLES         CLOUDY    32  22  66 NW8       30.12S WCI  25
ANDREWS AFB    CLOUDY    34  21  60 NW8       30.10S WCI  27
FT BELVOIR     CLOUDY    35  22  59 NW7       30.13S
QUANTICO       MOCLDY    35  21  56 N8        30.14R WCI  29
COLLEGE PARK*  CLOUDY    36  25  64 NW6       30.11S
LEESBURG*      CLOUDY    34  27  75 NW7       30.12S
MANASSAS*      CLOUDY    34  25  69 N6        30.13R
GAITHERSBURG*  CLOUDY    32  21  64 W9        30.12F WCI  24

$$

MDZ006>007-011-014-191100-
BALTIMORE METRO

CITY           SKY/WX    TMP DP  RH WIND       PRES   REMARKS
BWI AIRPORT    CLOUDY    34  23  64 W8        30.09F WCI  27
MD SCIENCE CTR   N/A     35  23  61 MISG      30.09F
MARTIN STATE   CLOUDY    36  27  69 W9        30.10F WCI  29
ANNAPOLIS      CLOUDY    35  23  61 W6        30.10S
FORT MEADE*    CLOUDY    34  25  69 W8        30.12F WCI  27

$$

MDZ012-015-019>023-191100-
MARYLAND EASTERN SHORE

CITY           SKY/WX    TMP DP  RH WIND       PRES   REMARKS
OCEAN CITY     CLOUDY    35  26  69 NW6       30.08R
SALISBURY      CLOUDY    37  25  61 NW8       30.08S
BAY BRIDGE AP*   N/A     34  25  69 W10       30.10S WCI  26
CAMBRIDGE*     MOCLDY    36  27  69 NW8       30.09R
EASTON*        CLOUDY    37  27  69 NW10      30.13R

$$

MDZ017>025-191100-
SOUTHERN MARYLAND

CITY           SKY/WX    TMP DP  RH WIND       PRES   REMARKS
PATUXENT RIVER PTCLDY    34  23  64 NW13      30.11R WCI  25
ST INIGOES     MOCLDY    34  22  61 NW5       30.11R
LEONARDTOWN*   PTCLDY    32  23  69 CALM      30.13R

$$

MDZ003>005-191100-
NORTH CENTRAL MARYLAND

CITY           SKY/WX    TMP DP  RH WIND       PRES   REMARKS
FREDERICK*     CLOUDY    36  23  60 W8        30.13S
HAGERSTOWN APT CLOUDY    33  22  63 W14       30.08F WCI  23
WESTMINSTER*   CLOUDY    32  25  74 NW6       30.06S

$$

MDZ501>502-191100-
WESTERN MARYLAND

CITY           SKY/WX    TMP DP  RH WIND       PRES   REMARKS
OAKLAND*       CLOUDY    21 N/A N/A W9        30.01F FOG     WCI  11
CUMBERLAND*    CLOUDY    32  23  69 W9G16     30.16F WCI  24

$$

VAZ025>031-191100-
SHENANDOAH VALLEY

CITY           SKY/WX    TMP DP  RH WIND       PRES   REMARKS
WINCHESTER*    CLOUDY    34  19  55 NW14      30.10F WCI  24
FRONT ROYAL*   CLOUDY    32  23  69 CALM      30.10S
LURAY*         PTSUNNY   32  27  80 CALM      30.10R
NEW MARKET*    FAIR      25  22  89 CALM      30.10R
STAUNTON*      CLEAR     27  23  85 CALM      30.10S
WAYNESBORO*    FAIR      27  22  84 CALM      30.07R

$$

WVZ021-048>050-054>055-191100-
EASTERN WEST VIRGINIA PANHANDLE

CITY           SKY/WX    TMP DP  RH WIND       PRES   REMARKS
MARTINSBURG    CLOUDY    34  19  54 W9        30.11S WCI  27
PETERSBURG*    MOCLDY    29  23  78 CALM      30.14R

$$

VAZ036>039-050-191100-
CENTRAL FOOTHILLS

CITY           SKY/WX    TMP DP  RH WIND       PRES   REMARKS
CHARLOTTESVILL CLEAR     30  22  72 CALM      30.09F
CULPEPER*      MOCLDY    30  25  80 CALM      30.12S
ORANGE*        CLEAR     30  27  86 CALM      30.12S
GORDONSVILLE*  FAIR      28  24  84 CALM      30.10S
WARRENTON*     FAIR      30  28  92 N3        30.11S

$$

VAZ055>057-191100-
NORTH AND CENTRAL PIEDMONT

CITY           SKY/WX    TMP DP  RH WIND       PRES   REMARKS
FREDERICKSBRG* CLOUDY    36  25  65 NW3       30.12S
STAFFORD*      CLOUDY    31  24  73 CALM      30.16S

$$

NCZ024-NYZ072-PAZ021-071-VAZ022-071-191100-
OTHER REGIONAL OBSERVATIONS

CITY           SKY/WX    TMP DP  RH WIND       PRES   REMARKS
NEW YORK CITY  CLOUDY    37  22  54 W10       29.99S
PHILADELPHIA   CLOUDY    37  25  61 W12       30.05S
PITTSBURGH     FRZ DRZL  27  25  92 W7        30.14S
ROANOKE        CLEAR     34  19  54 W10       30.13F WCI  26
RICHMOND       PTCLDY    34  23  64 N3        30.11S
RALEIGH        MOCLDY    42  27  55 CALM      30.11S

$$

ANZ530>537-191100-
MARINE OBSERVATIONS

STATION/POSITION TIME  TEMP    WIND        PRES
                       AIR SEA DIR/SP/G
                 (UTC) (F)     (DEG/KT/KT) (MB)
THOMAS PT LIGHT  1000   35 41  300/ 12/ 14 1020.4S
BALT KEY BRIDGE  1000   36     290/ 10/ 12 1018.8F
COVE POINT       1000   35     330/ 14/ 19 1019.2R
LEWISETTA        1000   36 43  320/  7/ 10 1019.5R
SOLOMONS ISLAND  1000      44                N/A
PINEY POINT      1000          350/ 14/ 16   N/A

$$



USA.gov is the U.S. government's official web portal to all federal, state and local government web resources and services.